TimePDT,TemperatureF,Dew PointF,Humidity,Sea Level PressureIn,VisibilityMPH,Wind Direction,Wind SpeedMPH,Gust SpeedMPH,PrecipitationIn,Events,Conditions,WindDirDegrees,DateUTC
12:53 AM,59.0,45.0,60,29.88,10.0,Calm,Calm,-,N/A,,Clear,0,2012-10-03 07:53:00
1:53 AM,57.0,44.1,62,29.89,10.0,Calm,Calm,-,N/A,,Clear,0,2012-10-03 08:53:00
2:53 AM,57.0,45.0,64,29.88,10.0,Calm,Calm,-,N/A,,Clear,0,2012-10-03 09:53:00
3:53 AM,55.9,44.1,64,29.89,10.0,Calm,Calm,-,N/A,,Clear,0,2012-10-03 10:53:00
4:53 AM,55.0,44.1,67,29.90,10.0,Calm,Calm,-,N/A,,Clear,0,2012-10-03 11:53:00
5:53 AM,54.0,44.1,69,29.91,10.0,Calm,Calm,-,N/A,,Clear,0,2012-10-03 12:53:00
6:53 AM,54.0,44.1,69,29.94,10.0,Calm,Calm,-,N/A,,Clear,0,2012-10-03 13:53:00
7:53 AM,62.1,44.1,52,29.95,10.0,Calm,Calm,-,N/A,,Clear,0,2012-10-03 14:53:00
8:53 AM,77.0,42.1,29,29.96,10.0,Calm,Calm,-,N/A,,Clear,0,2012-10-03 15:53:00
9:53 AM,84.0,41.0,22,29.97,10.0,WNW,4.6,-,N/A,,Clear,290,2012-10-03 16:53:00
10:53 AM,87.1,41.0,20,29.97,10.0,NW,5.8,-,N/A,,Clear,320,2012-10-03 17:53:00
11:53 AM,90.0,39.9,17,29.96,10.0,West,9.2,-,N/A,,Clear,280,2012-10-03 18:53:00
12:53 PM,91.0,39.0,16,29.95,10.0,West,9.2,-,N/A,,Clear,280,2012-10-03 19:53:00
1:53 PM,91.0,43.0,19,29.94,10.0,West,9.2,-,N/A,,Clear,270,2012-10-03 20:53:00
2:53 PM,91.0,42.1,18,29.94,10.0,West,12.7,18.4,N/A,,Clear,260,2012-10-03 21:53:00
3:53 PM,89.1,45.0,22,29.94,10.0,West,11.5,-,N/A,,Clear,280,2012-10-03 22:53:00
4:53 PM,86.0,46.9,26,29.95,10.0,West,11.5,-,N/A,,Clear,280,2012-10-03 23:53:00
5:53 PM,79.0,48.0,34,29.96,10.0,West,9.2,-,N/A,,Clear,280,2012-10-04 00:53:00
6:53 PM,72.0,53.1,51,29.99,10.0,Calm,Calm,-,N/A,,Clear,0,2012-10-04 01:53:00
7:53 PM,71.1,50.0,47,29.99,10.0,Calm,Calm,-,N/A,,Clear,0,2012-10-04 02:53:00
8:53 PM,64.0,51.1,63,29.99,10.0,Calm,Calm,-,N/A,,Clear,0,2012-10-04 03:53:00
9:53 PM,63.0,48.9,60,30.00,10.0,ENE,3.5,-,N/A,,Clear,60,2012-10-04 04:53:00
11:53 PM,55.9,46.9,72,30.02,10.0,Calm,Calm,-,N/A,,Clear,0,2012-10-04 06:53:00